Wind_Speed
15 15 15 14 13 12 11 11 10 9 8 8 7 7 8 7 7 6 6 6 6 6 7 8 8 8 8 9 8 7 7 8 9 11 14 14 13 11 15 18 20 23 22 19 18 20 19 16 14 13 15 12 6 6 6 4 5 4 1 1 2 2 3 3 5 4 3 2 1 4 3 2 1 1 3 2 4 5 5 6 6 5 5 11 14 19 24 23
17 16 16 15 14 13 12 12 11 10 9 8 8 8 8 8 8 6 6 6 6 6 7 8 8 8 8 9 8 8 8 8 11 14 12 11 15 16 16 19 21 24 24 22 21 21 20 19 18 16 16 10 5 5 4 4 5 4 1 1 3 3 5 4 5 5 4 4 2 3 3 3 4 2 4 2 5 8 5 4 4 6 8 11 17 24 25 26
17 17 16 16 15 14 13 13 11 10 10 9 9 8 8 8 8 7 6 6 6 7 7 9 9 9 8 8 8 8 9 9 12 11 9 13 17 18 18 19 22 24 24 21 19 19 16 17 19 18 16 8 4 6 4 5 5 4 3 2 5 6 5 7 8 9 9 8 1 0 3 5 5 4 6 2 6 9 7 9 8 11 14 17 24 28 27 29
17 16 17 17 16 15 14 13 12 11 10 10 10 9 8 8 8 7 6 6 6 7 7 8 9 9 8 8 8 8 9 9 7 6 8 14 18 19 19 20 21 22 22 16 16 19 15 16 19 16 15 7 4 6 4 7 6 4 5 4 5 3 3 11 11 11 12 9 5 2 2 4 6 6 8 5 6 6 9 17 17 18 21 24 30 30 30 31
16 16 17 17 17 16 15 14 13 11 11 10 10 9 9 8 8 7 7 6 7 7 7 8 9 9 8 8 8 8 7 3 3 5 7 13 16 18 20 20 20 21 21 17 19 23 17 17 18 13 11 5 4 5 5 11 9 4 8 10 10 4 3 13 12 9 9 7 6 3 3 5 3 6 11 10 6 3 10 21 21 22 25 29 34 33 32 32
16 16 17 17 17 17 16 15 14 12 11 11 10 9 9 8 8 7 7 6 7 7 7 8 9 9 8 8 8 7 4 1 4 3 6 12 16 18 21 21 20 22 23 19 21 23 18 18 17 12 8 3 5 6 4 12 13 4 7 10 15 13 8 15 14 8 7 6 6 5 5 5 3 3 10 14 8 2 7 17 20 21 25 31 36 35 34 33
16 17 17 18 18 18 17 17 15 13 12 12 11 10 9 8 8 7 7 7 7 8 8 8 8 8 7 8 7 7 7 4 3 3 5 11 15 19 22 23 22 25 25 21 24 24 21 21 18 12 7 3 5 8 6 9 13 7 5 6 13 16 14 19 18 13 10 8 9 7 4 5 6 2 4 11 11 7 6 11 18 22 27 33 36 35 34 33
17 18 18 19 19 19 18 17 16 15 13 12 11 10 9 8 8 7 7 7 7 8 8 8 8 7 7 7 6 7 8 5 3 3 5 11 17 21 24 25 24 26 25 22 25 25 22 23 21 13 6 6 5 6 6 6 9 8 8 9 9 12 16 20 18 15 11 10 10 7 5 6 8 4 3 7 10 12 9 10 19 23 29 34 36 35 34 33
19 19 20 20 20 19 18 18 17 15 13 12 11 10 9 8 8 7 8 8 8 8 8 8 8 7 6 7 6 6 5 5 5 5 7 14 19 22 24 25 25 26 25 22 23 24 23 22 23 17 6 7 7 5 7 5 4 9 12 12 8 12 18 19 15 11 8 7 7 5 5 6 8 6 3 6 8 11 10 11 20 26 30 33 33 34 35 33
20 21 21 21 21 20 19 17 16 15 13 12 11 10 9 8 8 7 8 8 8 8 8 8 8 7 6 6 4 2 5 5 5 7 9 15 21 23 24 24 25 26 24 23 25 25 25 21 21 19 7 4 5 5 7 6 4 7 11 12 12 17 19 14 11 8 3 4 6 5 4 3 6 7 2 3 8 12 14 15 23 30 32 34 31 32 34 32
22 22 22 22 21 20 18 17 16 14 13 11 10 9 8 8 7 7 8 8 9 8 8 8 7 7 6 6 5 4 3 4 8 10 11 14 19 21 22 22 24 26 24 24 27 26 24 20 15 12 5 4 4 5 7 9 9 9 9 11 12 13 14 10 8 6 1 2 5 6 3 3 4 6 2 5 10 16 18 18 26 32 32 33 31 31 32 30
23 23 23 23 22 20 18 17 16 14 13 11 9 8 7 7 7 7 7 8 9 8 8 8 7 7 7 9 11 7 2 5 10 12 14 13 12 14 16 18 20 22 23 23 25 25 23 19 12 9 6 5 4 2 5 8 10 9 6 7 9 7 6 5 2 2 2 3 2 4 1 3 3 3 3 6 11 17 19 22 31 33 30 32 31 31 31 29
24 24 24 24 22 20 19 18 16 14 12 10 8 7 7 7 7 7 7 8 9 9 8 7 7 7 6 8 8 7 3 6 11 14 17 15 10 13 17 17 18 20 21 22 22 23 24 18 12 13 12 9 6 5 11 11 7 7 3 2 6 7 4 3 1 2 2 2 3 3 2 3 2 1 4 6 12 18 19 24 33 32 30 32 31 32 30 30
25 25 25 25 23 21 19 18 15 14 12 9 6 6 7 7 7 6 7 8 9 8 8 7 7 7 7 6 4 7 8 8 13 16 18 17 13 15 19 18 19 22 23 22 20 20 24 21 14 13 15 13 11 11 12 8 3 5 3 1 2 3 4 4 1 5 3 1 3 4 1 3 3 2 3 5 13 19 18 23 31 30 30 30 30 30 28 30
25 26 26 26 25 22 20 18 15 14 11 7 5 5 6 6 6 6 7 8 8 8 7 7 6 5 6 6 4 9 13 11 14 16 16 16 14 13 17 19 20 22 23 23 17 14 17 19 15 13 15 15 13 10 7 4 2 2 2 3 2 1 4 6 1 6 3 1 1 3 0 3 3 2 3 6 14 18 18 21 27 28 29 29 28 29 26 29
26 27 27 27 25 22 20 18 15 13 8 5 4 5 6 5 5 6 7 7 6 7 6 5 6 4 4 4 5 10 16 16 13 15 16 16 14 12 13 17 20 21 24 23 16 10 9 10 13 14 15 13 7 4 4 5 4 2 1 3 3 2 3 5 1 4 4 3 1 1 1 2 1 2 5 8 15 18 18 20 25 27 28 29 29 29 26 26
26 27 28 27 25 22 20 17 14 9 4 3 4 4 4 4 5 5 5 6 6 6 6 4 3 4 5 3 5 8 15 18 14 13 16 18 17 13 11 14 19 21 22 22 17 12 8 5 7 9 9 6 2 1 3 4 4 3 1 2 4 3 3 4 4 1 4 3 1 0 1 2 3 3 5 7 16 18 17 18 23 26 27 28 30 30 26 26
27 27 28 27 25 22 19 16 11 6 1 2 3 3 3 3 3 3 4 5 5 4 5 6 3 2 5 6 4 5 9 15 16 14 15 18 19 17 13 11 14 17 17 14 14 13 9 6 3 3 4 3 2 4 2 5 2 0 0 3 5 4 4 4 4 2 4 4 1 1 0 2 4 3 4 8 15 16 16 19 22 25 28 28 29 30 27 27
27 27 28 27 24 21 18 13 8 3 1 3 3 3 3 3 3 3 4 6 8 5 1 7 9 1 2 7 4 4 6 10 16 15 15 18 19 18 14 9 9 14 12 6 7 11 8 4 2 2 4 7 6 6 8 9 3 2 3 5 6 7 7 6 3 4 5 4 2 2 1 1 5 5 2 9 16 14 15 20 20 22 26 27 29 30 29 28
26 27 28 26 22 20 16 10 6 2 2 3 3 4 4 3 2 2 6 11 13 11 4 5 11 6 1 6 4 1 3 8 13 14 15 18 18 17 13 9 9 12 9 5 4 9 9 3 4 7 10 10 6 6 8 8 7 7 6 6 8 8 9 6 2 3 5 4 1 0 1 2 3 5 2 9 15 12 13 15 16 20 25 28 29 28 29 30
26 27 27 24 20 18 12 7 5 3 3 3 4 4 2 2 1 1 4 9 13 16 16 13 13 15 11 6 4 4 2 7 12 13 15 17 17 14 12 11 9 7 6 6 5 6 8 4 9 14 13 8 3 4 6 6 7 7 6 6 8 7 8 5 2 3 2 4 2 1 3 4 2 2 3 6 11 10 12 13 14 18 23 26 26 26 28 28
26 26 26 21 18 16 9 6 5 3 3 3 3 2 0 1 1 1 3 6 10 11 16 18 18 21 18 13 11 8 4 4 8 11 15 17 17 12 12 11 5 4 6 6 5 4 4 7 15 15 7 4 4 5 6 7 7 6 5 4 7 6 4 4 2 2 2 2 2 1 3 3 3 2 4 4 7 8 11 13 14 16 19 24 24 26 28 26
25 25 24 19 16 13 7 6 6 6 6 6 5 4 2 2 2 3 4 5 7 6 8 14 17 20 17 12 11 8 6 5 7 12 16 19 18 13 12 9 4 5 6 5 6 5 4 8 13 10 4 4 7 6 6 6 5 5 5 4 7 7 2 3 1 2 2 2 3 2 2 2 2 0 2 4 5 5 6 10 13 12 14 21 24 28 29 28
24 25 23 17 14 9 5 6 7 8 8 7 6 4 2 3 3 5 5 3 4 4 3 8 11 14 14 8 6 7 8 6 7 14 19 21 19 13 10 7 5 6 5 7 8 6 7 6 3 2 5 7 7 6 5 5 5 5 7 7 9 11 6 4 2 2 3 2 3 3 3 2 2 2 2 4 3 2 2 5 9 10 10 14 21 28 31 31
23 24 21 15 13 6 2 4 6 7 7 7 6 3 0 3 3 5 3 1 3 3 2 3 6 9 7 3 5 9 8 5 8 15 20 23 21 11 6 7 5 4 5 7 6 5 10 9 3 2 2 5 5 6 5 5 4 5 7 11 13 14 7 4 4 3 3 3 1 3 2 4 3 2 3 3 3 3 2 2 7 11 11 10 15 23 30 33
23 24 19 14 12 4 1 2 5 5 6 6 5 4 1 2 3 3 2 3 2 3 2 2 3 5 8 6 8 9 4 3 9 16 19 21 21 11 5 6 3 3 5 4 2 3 6 5 1 3 4 4 5 6 5 6 3 5 5 8 12 12 5 7 7 3 1 2 3 1 2 3 4 3 3 4 5 5 5 3 6 11 14 13 13 17 24 32
23 23 17 12 11 4 4 2 3 3 4 5 4 3 2 2 3 4 2 4 2 2 1 2 1 6 8 5 12 11 2 4 9 13 20 22 21 12 4 3 2 3 5 4 2 3 3 1 2 5 5 5 4 5 5 7 5 5 4 2 6 7 5 8 7 3 2 2 2 1 3 1 3 3 3 5 6 6 6 5 7 11 15 17 16 15 19 27
22 22 16 11 10 6 4 5 5 3 3 4 2 1 3 4 4 4 2 4 1 1 2 2 1 6 5 5 15 8 3 10 9 9 20 21 19 12 4 5 4 4 4 5 4 5 2 2 4 6 4 3 4 6 6 7 4 5 3 3 1 3 6 7 6 3 1 1 3 3 2 1 3 2 2 4 4 5 8 9 8 11 16 19 19 17 17 21
20 20 15 9 9 7 3 6 6 3 4 3 0 1 4 5 4 3 3 3 1 1 1 3 3 5 4 6 13 7 1 7 4 8 19 20 19 9 3 8 6 3 5 6 6 6 2 3 5 4 3 4 6 7 6 8 5 4 3 7 6 6 6 5 4 3 1 2 3 5 4 1 3 2 3 3 3 8 10 9 9 11 17 23 23 21 19 20
19 18 13 8 8 5 2 6 6 4 5 3 2 3 5 4 2 3 2 1 1 1 1 3 3 3 5 6 5 5 0 1 2 10 14 15 19 11 3 8 6 3 2 3 5 7 6 9 9 4 5 6 7 6 4 7 7 3 5 5 6 5 4 4 2 2 3 2 5 5 7 3 2 3 5 5 7 12 12 8 9 12 17 24 26 25 23 22
18 16 11 8 7 4 2 4 5 6 6 4 4 4 4 3 2 5 2 1 1 1 1 2 2 1 5 5 2 1 1 1 3 9 8 6 12 9 2 2 2 2 2 5 5 5 6 7 6 5 9 9 5 5 3 1 3 4 4 3 4 3 3 4 3 3 2 4 5 3 6 4 1 4 7 11 9 11 14 12 11 13 17 24 28 28 27 25
17 13 9 7 7 4 3 3 3 3 4 4 3 3 1 2 3 3 1 2 1 1 1 2 2 2 4 3 1 1 2 1 1 5 5 4 5 6 4 3 3 1 2 4 4 5 5 6 4 5 9 9 4 4 5 4 3 4 3 4 3 3 3 3 3 2 1 4 3 4 5 2 4 6 8 14 12 10 14 17 17 18 21 26 30 31 30 27
15 10 7 6 7 6 3 3 1 1 5 4 2 2 2 5 2 1 1 2 0 2 2 2 2 4 5 4 1 2 2 2 2 2 4 4 3 5 5 5 4 3 2 3 2 3 4 6 3 2 5 7 7 3 2 1 0 2 4 3 2 2 3 2 3 2 2 4 2 3 3 2 4 5 6 12 15 16 19 22 26 29 30 31 32 32 31 28
12 8 7 6 6 7 4 1 2 5 6 2 1 0 3 4 1 2 2 2 2 1 0 1 3 4 5 3 3 2 2 2 3 4 3 3 3 4 4 4 4 3 1 2 1 2 2 4 3 3 2 3 5 6 5 3 3 4 4 4 3 4 2 3 3 1 3 3 2 1 1 2 3 3 4 7 13 19 23 26 30 32 32 30 29 29 29 29
10 7 7 6 6 7 5 1 3 6 3 2 2 3 3 1 2 1 1 3 2 2 3 1 4 5 2 1 3 1 3 3 2 4 3 4 4 4 4 5 6 4 3 2 2 2 2 5 6 4 2 3 3 5 5 5 1 3 3 4 1 4 4 1 3 4 2 1 2 2 2 4 4 3 4 4 5 15 21 24 26 26 28 25 23 26 28 29
8 6 7 7 7 7 5 1 4 5 1 2 3 3 1 1 2 2 1 2 2 2 3 3 4 4 1 1 3 2 2 1 1 2 2 2 2 5 5 4 7 7 5 4 2 1 1 5 6 4 4 4 6 6 5 5 2 0 2 3 5 4 5 2 1 0 3 1 3 1 2 5 3 2 5 6 4 11 14 17 21 24 26 24 23 26 28 30
7 5 7 8 8 7 5 2 3 2 2 3 4 0 2 3 3 4 1 3 4 2 3 2 1 3 2 2 2 3 1 1 1 1 1 2 2 5 5 4 6 10 10 8 3 2 2 5 5 2 5 7 6 6 5 4 5 4 2 5 3 1 3 3 0 3 3 0 3 2 3 5 3 1 3 7 7 8 11 13 15 18 22 23 25 28 30 32
6 5 8 9 9 8 5 3 3 0 3 3 2 2 1 2 3 5 4 4 3 0 3 2 2 2 4 3 3 3 3 3 3 2 2 2 3 5 6 4 6 11 15 12 5 2 2 3 6 3 5 6 3 1 3 5 2 4 3 3 3 1 1 1 1 0 1 1 4 4 3 3 2 2 2 4 5 8 10 12 12 13 18 23 26 29 30 32
4 4 7 9 9 8 6 3 1 2 4 3 1 1 1 3 6 8 11 6 1 1 2 3 2 2 3 5 3 2 4 4 4 4 3 3 3 4 7 6 5 10 15 14 6 2 3 1 6 4 4 4 5 1 1 4 3 2 1 1 2 2 3 1 1 2 1 1 2 3 4 3 4 5 3 4 7 9 10 12 13 15 21 26 28 30 31 32
2 4 6 8 9 8 6 3 2 3 3 1 1 2 1 3 7 13 15 7 3 1 2 3 2 2 3 4 3 3 4 4 5 4 3 4 4 4 6 7 3 4 10 13 7 2 2 2 4 5 4 3 4 1 4 3 1 1 1 2 1 1 2 1 1 1 2 3 2 1 2 5 5 4 4 6 9 10 12 12 12 16 23 26 27 30 32 33
2 4 4 7 8 8 7 5 2 2 2 0 1 2 3 3 5 12 15 6 4 5 3 3 3 3 3 3 2 3 3 3 5 4 2 4 4 3 5 9 6 4 6 6 4 3 3 2 2 4 5 3 6 6 6 6 5 4 4 4 3 2 3 2 2 2 1 3 3 2 1 6 5 3 4 5 7 10 12 11 10 16 24 25 27 31 33 34
4 3 2 6 7 6 7 4 1 2 2 1 4 5 7 6 5 8 11 6 2 4 2 2 2 2 2 2 2 3 3 2 4 3 2 3 4 4 5 7 10 10 8 3 2 4 4 3 2 5 5 6 11 9 5 7 5 5 3 3 4 4 5 4 3 3 0 1 1 2 1 5 5 2 3 3 6 11 16 15 12 17 26 28 29 31 33 35
6 4 3 6 5 6 7 3 3 3 1 4 8 7 7 5 3 6 7 6 3 2 2 1 0 2 1 2 1 2 2 2 3 3 3 3 3 8 11 9 10 10 7 2 2 3 4 2 1 4 5 6 10 8 1 3 3 3 2 2 3 3 3 5 4 3 3 2 2 2 2 5 4 3 1 2 5 11 17 19 17 17 23 28 31 32 34 36
6 5 5 5 4 6 5 2 2 4 4 6 6 4 4 3 3 5 5 5 5 3 1 2 1 1 2 1 2 2 1 2 1 1 1 1 2 7 8 9 9 8 6 5 6 8 5 2 2 1 4 6 7 6 5 3 1 1 3 1 3 3 5 4 2 3 1 3 4 4 3 6 5 4 2 3 4 6 12 19 21 18 19 25 30 33 36 37
4 4 4 3 2 4 4 2 0 2 3 5 4 5 7 3 4 8 5 4 5 3 1 3 3 2 2 1 3 3 4 4 2 1 2 1 3 6 6 5 7 10 9 5 12 14 6 2 4 3 2 1 1 1 2 3 2 2 2 2 1 5 6 4 3 3 1 3 3 4 4 6 6 5 4 2 3 5 9 15 19 19 20 24 27 31 34 36
3 2 3 3 1 3 3 2 3 2 1 4 3 4 6 4 6 11 7 3 7 7 3 2 4 3 4 5 4 5 6 4 2 2 3 4 3 5 8 7 2 7 10 9 17 14 3 1 6 6 6 6 5 6 4 1 0 3 4 4 2 4 5 4 4 3 4 3 1 5 5 4 7 6 4 4 2 4 5 9 14 17 20 23 26 30 32 34
3 1 1 2 2 2 3 4 6 4 2 2 1 3 6 5 5 8 7 4 8 10 4 4 6 4 3 5 4 4 5 4 4 3 3 3 3 5 9 6 4 4 5 16 20 11 4 1 5 6 7 8 6 6 3 1 1 4 4 4 3 2 4 5 4 5 5 4 4 7 4 2 7 6 5 6 4 4 5 8 15 19 21 23 25 27 29 31
3 1 1 2 1 1 1 4 7 5 4 2 0 2 6 7 5 5 5 6 9 10 5 4 7 6 4 3 3 3 5 4 5 5 4 3 3 6 9 4 5 11 5 11 13 7 4 2 4 5 7 9 6 5 4 1 2 2 2 3 4 2 4 4 4 5 7 5 5 5 5 6 8 6 7 8 6 6 6 10 16 19 20 22 22 24 27 29
3 2 1 3 0 2 1 5 7 4 4 3 2 3 5 6 7 4 4 5 7 9 6 3 5 7 7 4 3 3 4 2 3 4 3 4 4 4 6 5 4 11 10 3 2 2 3 2 3 4 4 6 5 5 4 2 1 4 4 3 2 3 5 3 2 3 4 5 6 2 4 8 9 7 7 6 5 4 3 7 13 16 18 21 23 25 28 30
3 2 2 2 1 1 2 5 4 1 2 4 2 3 4 4 6 6 4 3 3 6 6 4 5 7 5 5 5 3 1 1 1 3 2 3 4 2 2 2 3 7 8 2 2 3 1 2 1 3 1 3 4 4 2 3 4 5 5 6 6 3 1 2 1 1 1 6 7 3 2 8 8 4 5 4 4 5 3 5 10 14 18 22 24 27 29 31
2 2 4 2 1 3 3 3 3 3 2 3 2 2 4 3 5 6 4 2 3 4 5 5 6 5 4 6 6 2 3 4 6 10 9 5 5 5 3 2 3 4 6 1 2 3 2 0 1 4 2 3 2 4 3 1 5 7 7 8 8 7 4 3 2 2 1 5 6 5 3 6 6 4 3 3 4 6 6 8 9 12 16 20 24 28 31 33
2 1 3 2 1 3 3 2 3 3 1 1 1 2 3 4 7 7 3 3 4 7 7 7 6 2 2 5 6 8 14 15 15 18 18 15 14 14 14 13 9 4 2 1 1 1 3 2 1 2 3 4 4 2 2 3 6 5 4 2 3 4 4 3 3 3 1 2 2 4 5 6 6 6 4 4 4 5 7 11 11 11 13 17 22 26 30 33
Wind_Direction
7 4 358 353 347 340 334 329 324 321 316 308 300 291 290 292 294 294 284 284 294 289 278 277 282 284 280 276 274 275 267 261 259 245 233 214 197 192 190 189 186 185 185 179 170 162 163 175 182 181 182 184 196 199 201 211 180 178 121 188 248 232 217 198 190 196 183 254 194 184 238 206 249 239 197 193 151 154 164 183 177 168 186 174 174 178 171 163
7 5 1 357 350 343 335 329 325 322 315 308 300 292 288 287 290 291 282 276 283 286 279 276 279 282 281 279 280 281 275 265 264 251 229 201 193 191 185 186 188 187 185 183 182 173 170 178 179 180 185 183 187 190 194 202 181 186 204 197 237 221 221 218 208 200 202 244 167 168 267 228 240 194 186 195 145 164 145 151 178 154 159 163 167 172 168 160
1 1 359 357 352 347 339 331 327 321 313 306 298 294 288 283 285 284 281 272 272 280 279 277 276 282 283 280 285 286 288 284 274 258 217 193 191 189 184 183 188 191 192 193 193 186 183 181 175 174 183 187 183 181 184 196 192 202 201 249 246 227 248 259 242 235 243 254 229 184 261 228 237 185 185 203 153 179 174 174 175 157 161 161 164 167 165 162
355 354 354 353 351 347 341 335 327 318 313 307 298 294 288 281 279 276 276 269 267 273 275 277 275 281 283 283 288 288 304 305 268 234 198 193 191 188 184 182 188 193 194 196 190 183 186 181 170 170 182 196 194 186 196 202 189 177 194 227 241 204 254 265 260 259 262 258 248 231 226 247 250 199 196 188 164 201 200 194 187 173 171 164 164 166 165 168
352 351 350 348 347 345 340 335 328 320 311 306 301 294 286 280 276 270 269 266 264 265 270 276 274 278 284 284 287 290 315 348 174 186 191 190 189 188 183 180 185 192 189 188 183 178 183 178 167 171 188 200 195 195 214 209 193 176 225 237 249 234 251 274 279 281 272 244 232 216 221 255 247 194 199 197 182 214 215 208 197 183 178 169 167 166 167 171
352 350 348 345 343 340 336 333 329 321 310 304 302 295 286 277 271 264 259 261 261 259 266 271 272 276 281 282 287 289 287 168 153 169 185 182 186 186 181 179 181 189 187 182 184 180 179 174 170 181 194 204 202 208 220 204 196 213 250 240 254 248 243 273 278 281 272 220 211 215 239 238 201 208 207 207 204 198 220 214 202 188 183 174 169 169 170 173
354 350 347 343 340 336 333 330 327 323 313 303 300 295 287 275 267 260 251 255 256 256 262 266 272 274 279 280 284 284 266 243 162 158 189 178 181 182 178 177 178 187 186 183 186 182 177 176 181 190 190 220 209 217 230 199 195 220 272 250 263 258 249 268 274 276 266 231 228 222 232 215 199 229 201 211 215 216 216 199 197 188 178 173 170 172 174 175
356 351 347 343 338 334 330 328 324 321 314 302 298 293 287 273 263 255 245 249 252 255 260 263 271 270 278 277 283 291 267 242 180 184 202 179 176 178 177 176 178 186 187 188 189 185 181 180 188 189 189 229 214 212 215 192 197 214 253 258 271 267 264 278 282 276 258 235 238 225 224 229 220 215 191 222 221 227 228 189 190 182 173 173 172 174 175 176
356 352 349 343 339 335 331 328 323 320 316 305 295 289 285 272 259 252 243 243 248 255 257 262 269 268 274 269 284 297 246 210 202 199 191 179 174 177 180 178 180 186 187 191 193 190 186 186 194 192 192 229 224 224 196 184 217 211 234 254 272 276 280 290 287 277 259 227 218 216 239 247 232 224 245 245 221 218 211 189 187 178 172 173 173 176 176 177
357 354 350 345 341 337 334 331 325 321 317 308 295 285 281 269 257 251 241 238 245 253 257 261 266 265 269 263 269 261 213 198 187 173 173 176 173 175 182 183 184 187 187 188 193 196 196 197 200 198 210 247 230 237 197 197 245 228 242 260 266 275 285 288 282 286 278 197 190 200 251 264 221 216 243 218 201 191 179 182 185 175 172 174 174 176 176 179
357 355 351 347 342 339 336 334 329 323 317 309 295 281 275 267 256 250 241 238 242 250 257 261 267 267 263 255 233 206 210 187 163 151 156 172 175 177 181 186 189 189 188 189 196 203 204 203 199 197 222 279 257 244 218 230 261 271 281 285 271 278 287 272 270 283 221 134 183 192 246 287 212 207 181 158 173 177 170 173 179 174 172 174 175 176 176 180
357 355 352 348 343 340 338 335 331 325 318 309 294 277 269 263 254 248 242 241 243 248 257 263 268 268 263 259 242 219 189 166 159 149 153 163 171 177 183 189 195 195 193 195 200 203 205 205 202 205 233 295 307 264 265 273 274 276 290 299 291 311 306 258 245 255 158 88 145 164 275 285 219 189 161 157 166 170 163 165 174 175 174 174 174 175 175 180
355 354 352 348 343 340 338 335 331 324 318 309 292 269 258 256 250 247 242 240 244 248 257 265 270 273 268 260 239 213 208 171 159 157 162 166 168 180 190 194 199 202 201 203 204 203 205 204 205 223 249 290 311 296 302 305 290 281 272 259 302 337 329 257 118 121 126 77 97 93 1 296 292 209 153 161 170 168 160 165 174 176 174 174 174 173 174 180
353 353 351 348 344 341 338 335 332 326 319 309 287 254 246 246 245 246 240 242 247 250 259 265 269 275 257 244 215 204 207 167 156 165 168 170 173 185 195 198 202 203 203 205 205 207 210 208 213 237 256 273 289 294 303 312 292 290 296 188 321 336 297 286 156 129 106 66 96 75 8 272 292 267 182 184 177 170 163 168 176 175 172 173 173 171 173 181
351 351 350 349 344 341 338 335 334 328 318 302 270 240 238 241 244 243 242 245 248 251 259 264 263 266 260 254 224 199 196 169 158 172 177 178 179 186 195 201 205 205 207 206 201 207 215 217 226 249 263 270 287 297 304 323 318 307 296 302 328 225 272 307 232 156 128 81 72 64 128 256 256 243 244 201 178 173 168 170 176 176 172 170 171 171 173 182
349 349 349 348 345 340 338 336 335 330 316 288 243 231 235 239 240 239 245 246 247 251 251 257 250 240 272 268 213 194 193 183 167 175 189 193 195 193 193 202 208 209 211 208 198 189 195 219 236 246 259 270 282 299 321 321 319 346 261 275 295 280 296 327 314 170 133 108 26 32 196 280 275 251 266 204 178 176 169 168 175 176 172 169 171 173 174 180
348 348 348 348 344 341 339 338 337 332 312 254 224 223 233 235 237 242 247 241 239 241 235 240 243 245 263 238 184 190 197 195 187 188 197 198 204 209 200 202 208 209 212 212 208 201 197 220 240 243 252 260 221 127 346 307 289 322 346 271 269 274 292 313 319 185 111 83 319 267 201 294 321 268 259 200 177 177 165 162 173 176 173 170 171 175 176 178
347 347 348 347 344 341 341 341 343 339 296 205 195 199 214 217 218 230 236 233 220 214 242 231 198 304 246 205 165 160 187 204 206 209 208 199 203 212 210 210 212 207 204 210 218 217 223 238 247 274 267 250 187 133 200 245 236 21 29 328 301 290 270 274 292 203 111 61 37 24 333 307 337 304 246 192 175 174 162 160 171 176 175 173 173 178 179 178
347 346 347 347 344 343 343 346 352 351 161 162 171 173 176 173 179 205 207 209 200 175 280 212 187 155 172 176 175 153 164 203 212 214 210 200 200 207 212 224 214 189 174 180 217 206 201 228 259 282 256 237 216 178 210 235 252 305 301 312 302 300 288 271 260 199 134 80 39 17 340 322 354 340 249 179 169 162 157 161 170 174 176 178 180 183 184 182
346 345 347 348 345 345 348 356 6 19 118 135 151 149 148 147 140 216 215 219 220 215 247 215 199 223 135 136 152 142 150 187 203 209 204 201 199 196 200 198 177 168 159 151 187 184 175 199 245 232 232 232 221 202 227 254 279 295 300 299 289 287 289 284 233 196 130 89 319 301 45 8 17 351 342 164 162 152 149 156 165 172 179 185 186 188 189 187
345 345 347 348 347 349 356 9 24 59 101 122 150 145 150 166 128 307 243 245 248 240 249 258 248 253 257 235 246 316 337 177 190 202 200 198 192 180 180 174 157 161 175 151 127 156 168 203 236 231 234 241 231 201 226 258 270 275 277 291 292 275 275 286 157 179 104 81 280 197 64 5 10 353 359 145 152 147 151 157 165 173 182 189 191 192 194 193
343 344 347 349 348 352 3 24 42 79 94 114 144 133 110 196 194 304 317 289 277 257 247 251 256 257 252 248 261 286 288 186 182 192 188 183 180 171 168 171 161 157 167 146 117 134 175 237 242 237 238 250 249 223 220 241 247 258 264 278 287 275 282 315 86 96 38 82 233 202 82 342 311 357 15 106 139 142 148 160 169 174 183 191 192 194 198 198
342 343 348 350 349 355 22 56 68 93 100 104 109 110 138 183 232 288 321 304 289 284 248 240 247 254 253 257 263 253 224 200 177 180 181 176 174 170 167 169 166 144 148 168 156 152 190 241 248 239 206 219 248 243 229 251 254 246 251 258 273 273 276 296 310 76 38 95 174 157 97 304 300 45 47 75 128 147 137 159 178 180 182 192 196 196 198 198
341 343 348 351 353 2 52 74 83 100 104 101 95 108 181 235 262 286 290 281 291 309 272 236 239 251 257 264 248 211 199 201 182 176 179 176 168 164 173 167 147 144 158 192 186 190 221 239 267 197 180 203 242 258 235 254 271 247 234 230 253 263 246 226 220 104 44 34 138 116 41 314 266 202 162 92 118 181 157 174 198 201 185 184 192 197 201 199
340 342 348 352 354 3 79 88 101 107 104 96 85 90 266 272 281 295 287 293 301 313 340 211 227 240 229 191 179 181 177 197 198 182 180 181 170 156 175 171 148 163 182 195 199 231 252 261 294 311 226 192 223 258 228 208 262 284 243 221 234 253 247 156 138 104 34 340 225 116 35 300 281 235 192 127 132 206 221 212 220 217 204 187 181 190 201 203
339 341 347 350 352 360 155 97 115 117 109 100 86 83 54 310 307 303 309 40 1 306 25 144 213 200 182 171 164 156 146 210 200 188 185 187 181 161 157 173 159 184 180 181 201 236 258 268 229 249 266 226 233 261 223 180 218 297 257 210 223 239 220 145 147 132 66 272 267 118 132 265 293 267 202 145 155 201 214 216 222 219 215 208 191 183 195 203
338 339 346 347 351 339 259 254 156 142 121 112 94 85 34 335 323 313 335 42 17 293 103 159 213 168 180 188 163 144 96 174 164 185 191 188 188 180 168 184 172 189 166 134 211 238 227 225 190 212 240 246 248 263 220 164 167 261 278 221 220 219 179 152 143 130 189 220 313 331 133 143 293 271 202 147 159 201 225 233 226 217 214 213 208 193 190 198
337 337 344 344 347 338 271 226 200 197 149 132 106 64 336 325 321 327 53 68 12 285 146 183 135 155 173 181 173 161 95 152 146 192 196 189 190 187 188 204 174 186 185 150 208 256 159 153 204 198 227 247 228 245 211 158 179 258 320 36 188 152 136 137 124 117 182 45 315 267 146 118 273 271 149 145 169 209 225 229 225 215 210 211 215 207 194 194
337 335 341 344 344 340 279 207 203 198 168 160 85 302 318 317 319 357 82 79 3 296 152 150 133 162 163 157 188 216 99 149 146 183 187 189 192 187 215 220 191 172 215 189 218 263 251 241 248 212 236 234 228 247 200 166 213 257 58 70 67 77 99 103 111 124 74 19 280 233 171 149 276 235 155 150 205 216 221 223 221 219 211 209 214 211 203 199
337 333 339 345 342 335 261 210 210 208 193 208 273 281 315 315 331 51 68 64 205 289 35 160 180 186 152 133 200 252 195 127 79 147 168 183 192 203 241 220 200 136 237 253 244 261 268 274 281 257 232 229 239 255 207 189 203 163 75 74 66 57 65 58 67 92 62 308 274 225 179 155 305 243 185 189 208 200 202 212 216 222 214 208 211 212 208 207
337 332 337 345 346 336 245 216 225 237 230 233 246 262 307 317 60 80 93 259 210 316 15 179 225 107 132 136 189 240 99 359 86 134 154 166 188 216 267 211 203 107 328 295 272 290 295 277 273 244 234 234 251 282 295 242 170 113 74 87 72 15 13 24 356 31 72 258 281 223 168 138 282 253 209 217 223 190 188 201 204 213 214 208 210 213 212 211
339 334 339 344 350 341 270 242 258 254 216 204 217 230 277 16 43 71 225 303 353 231 223 185 185 114 117 108 150 187 128 182 128 135 155 140 162 206 212 195 186 143 304 268 271 316 297 256 243 253 246 222 209 285 316 1 51 79 85 86 63 355 4 11 318 349 201 251 275 161 147 133 236 247 220 218 224 195 186 194 194 202 210 208 209 213 213 212
342 342 349 347 359 359 314 260 259 166 159 168 208 219 96 71 53 339 308 331 316 218 214 144 120 122 124 118 228 228 135 204 219 151 156 145 151 203 224 216 174 146 232 228 271 312 294 279 255 253 259 206 177 205 280 306 107 137 145 128 108 97 38 325 282 310 274 281 310 157 170 288 274 266 219 210 216 201 185 184 190 201 207 206 206 210 212 212
348 356 358 350 8 11 356 264 184 154 155 173 320 107 75 68 36 329 349 276 255 252 258 131 108 94 113 160 224 187 148 242 201 139 136 138 155 214 240 229 188 150 170 195 251 198 231 293 247 197 256 191 177 198 201 175 172 190 169 141 144 150 158 259 239 246 272 287 342 34 203 234 267 272 228 223 217 196 182 180 189 203 210 205 203 206 209 211
355 6 9 11 20 18 21 78 167 153 170 286 22 74 77 67 269 299 288 262 277 344 338 25 99 90 87 233 275 201 172 237 165 125 156 165 171 202 207 213 201 162 140 182 237 184 195 266 253 252 248 166 206 222 166 120 167 244 143 112 231 194 161 228 206 182 185 247 285 290 241 225 232 281 311 311 207 179 176 177 181 199 209 205 203 205 207 210
3 10 27 37 31 26 36 67 156 150 243 340 50 55 72 225 232 192 223 286 315 325 343 15 80 92 125 246 302 287 175 219 145 111 193 197 197 205 197 214 200 176 164 177 221 196 190 269 273 311 306 224 225 222 171 151 191 275 124 183 243 189 127 108 241 156 73 71 272 269 277 290 318 342 343 11 95 150 163 169 174 189 198 199 203 206 206 209
20 35 50 47 32 29 44 74 138 156 312 36 80 33 238 235 212 188 240 320 299 294 85 99 149 134 158 183 263 256 173 197 199 145 207 230 240 207 204 231 191 184 192 189 212 215 179 276 275 271 283 270 242 216 216 207 163 129 184 218 218 137 89 105 184 356 43 284 285 314 278 296 348 341 344 41 83 139 159 166 170 179 188 195 203 206 206 208
34 76 60 44 29 28 52 96 127 242 332 50 84 269 235 254 227 212 275 312 298 306 104 146 211 156 162 185 238 228 167 183 203 172 173 209 249 203 184 212 200 195 198 188 207 253 159 276 286 237 240 285 322 154 267 290 224 156 188 178 130 160 254 62 130 226 29 308 298 314 301 273 215 246 299 80 124 158 162 166 168 173 186 196 202 204 206 206
35 102 58 37 27 31 55 81 59 351 11 54 9 289 225 271 271 279 295 299 277 99 143 202 195 121 156 178 194 188 175 192 189 175 167 174 240 218 177 192 212 205 194 176 180 242 144 207 291 276 237 299 347 55 235 296 327 65 115 117 69 144 174 189 152 169 170 183 271 312 331 291 230 226 205 171 174 168 164 171 176 182 189 195 198 200 202 203
46 108 62 34 31 39 41 19 7 25 35 70 229 248 259 281 286 302 310 298 211 197 205 206 169 136 183 189 188 182 187 191 173 183 209 179 208 250 197 193 203 192 182 174 176 198 118 164 266 289 301 327 327 231 183 203 167 91 203 216 333 66 149 186 4 88 127 146 187 298 321 278 251 210 189 189 179 174 177 181 183 186 190 194 197 196 198 200
68 101 61 36 42 41 23 6 14 48 61 175 234 248 282 301 287 306 320 317 230 240 236 206 178 166 180 187 205 188 172 182 183 190 220 193 209 258 214 199 187 126 134 167 196 193 172 178 216 293 321 300 263 238 184 180 173 162 192 203 184 145 123 124 303 310 88 130 170 166 243 272 261 192 180 184 173 179 186 186 186 185 187 193 197 196 198 200
61 84 53 49 55 27 9 11 2 35 110 290 315 286 280 295 291 302 321 335 255 255 263 229 200 158 172 199 212 171 142 170 196 184 204 217 208 223 235 211 180 156 136 147 209 178 154 127 185 268 274 251 266 269 203 190 182 157 186 202 161 137 128 149 236 264 131 97 155 134 212 270 264 212 185 172 172 183 186 187 191 188 187 191 195 196 198 201
49 66 80 79 66 14 11 29 352 359 283 293 305 284 269 272 286 307 322 346 337 309 341 314 311 73 221 237 152 122 130 165 188 187 214 226 212 229 238 218 179 158 143 154 177 151 146 129 178 276 297 291 289 297 249 172 147 143 220 189 146 156 150 161 188 183 154 181 169 114 281 270 281 304 265 151 161 180 186 190 194 193 190 190 192 194 198 201
35 59 74 85 71 22 30 89 347 337 302 309 314 309 301 259 280 325 317 325 334 334 359 328 335 53 281 244 95 85 97 114 145 232 238 194 268 270 253 226 204 178 172 197 178 163 175 176 133 322 327 333 331 345 359 355 51 172 241 225 159 139 107 117 134 88 91 216 156 126 244 257 274 317 351 76 123 175 194 195 195 195 194 193 192 195 198 200
18 64 58 64 78 26 45 114 12 313 306 329 330 336 341 309 327 348 327 301 337 2 19 309 305 306 309 47 78 36 36 74 93 9 17 351 277 298 312 281 231 201 204 201 163 161 168 167 145 143 185 234 325 326 297 293 298 299 295 307 195 145 131 142 132 97 230 226 141 151 224 264 296 326 346 33 115 180 204 199 199 199 196 195 195 196 197 199
20 78 28 22 49 31 52 71 24 357 310 357 350 334 352 335 325 346 354 353 356 3 24 346 336 346 8 32 52 31 20 30 60 67 14 346 282 290 313 319 298 212 216 180 154 152 121 188 183 169 174 186 196 216 228 209 306 302 307 313 283 158 134 107 106 141 195 175 184 215 209 287 306 306 300 295 168 183 207 194 198 203 200 198 198 198 199 199
25 83 358 12 8 14 46 33 18 10 311 354 9 318 349 349 323 344 5 5 352 358 19 23 15 32 20 12 53 44 3 360 27 30 353 324 271 294 309 313 10 357 209 171 159 147 80 241 205 182 200 216 210 222 264 33 207 253 291 327 327 160 131 122 154 196 164 132 272 251 187 230 275 262 255 262 224 200 210 191 196 204 203 202 201 201 201 200
21 115 96 50 350 231 74 357 346 345 323 317 226 335 354 2 357 355 344 335 354 11 29 23 18 32 11 351 93 52 358 7 14 352 341 336 314 332 339 327 25 25 51 162 167 147 115 213 213 184 222 248 243 253 298 326 233 269 346 355 341 245 185 166 206 211 158 158 263 250 173 215 255 246 228 231 216 206 204 196 200 204 202 202 202 201 202 201
31 93 71 42 29 207 223 315 319 332 336 335 13 12 1 360 359 350 317 326 350 6 28 39 354 2 10 19 92 68 12 30 9 323 316 350 334 343 353 327 355 27 39 116 195 79 111 212 219 175 223 267 268 273 272 199 108 14 356 344 1 207 201 182 211 213 188 232 271 239 195 242 256 247 237 233 213 202 189 188 198 201 201 201 200 201 203 204
45 69 1 3 10 319 310 324 338 55 13 3 25 358 346 360 359 339 321 347 349 346 13 25 324 326 354 22 62 96 192 181 192 258 268 358 344 323 1 285 280 2 25 58 318 352 97 206 213 114 131 297 317 337 310 178 112 54 354 348 16 37 58 63 56 71 252 276 292 328 271 268 271 262 257 248 194 177 184 189 192 198 201 200 200 203 205 205
67 54 13 24 23 352 340 336 15 101 45 9 32 337 333 347 346 326 302 333 44 21 0 342 325 317 331 7 37 71 288 279 245 251 259 264 264 266 277 228 223 341 357 340 304 351 53 187 22 80 91 265 298 20 345 308 69 45 6 357 11 25 46 53 35 53 205 271 303 330 282 259 287 317 292 244 169 159 196 212 202 199 201 202 204 207 208 208
102 88 19 36 15 354 2 348 15 88 114 332 356 339 309 299 324 333 317 320 8 31 18 357 354 345 331 7 5 327 317 307 285 281 283 277 269 267 267 261 252 256 283 300 331 22 102 115 182 110 117 254 275 43 55 43 42 10 317 329 32 51 87 92 40 11 298 229 262 274 249 251 295 322 300 242 195 180 210 222 221 218 213 213 214 214 214 214
Height
1504 1503 1502 1501 1500 1499 1498 1497 1496 1495 1495 1494 1494 1494 1493 1493 1493 1493 1493 1492 1492 1491 1491 1490 1490 1490 1489 1489 1489 1489 1489 1488 1488 1488 1487 1487 1489 1490 1492 1494 1495 1496 1497 1498 1500 1501 1503 1505 1506 1506 1508 1509 1510 1510 1511 1511 1511 1513 1514 1519 1521 1520 1516 1508 1505 1505 1502 1501 1501 1500 1498 1499 1499 1500 1500 1501 1503 1502 1503 1506 1506 1506 1506 1506 1507 1510 1512 1513
1504 1503 1502 1501 1499 1498 1497 1496 1496 1495 1494 1493 1493 1493 1492 1492 1492 1492 1492 1492 1491 1491 1490 1490 1489 1489 1489 1488 1488 1488 1487 1487 1486 1485 1485 1486 1488 1489 1490 1493 1494 1495 1495 1497 1498 1499 1501 1502 1504 1506 1508 1509 1509 1510 1511 1511 1512 1513 1514 1518 1518 1513 1506 1500 1500 1499 1499 1500 1499 1499 1498 1499 1499 1499 1500 1501 1502 1501 1503 1506 1507 1506 1506 1508 1508 1510 1513 1513
1503 1502 1501 1500 1499 1498 1497 1496 1495 1494 1493 1492 1492 1492 1491 1491 1491 1491 1491 1491 1490 1490 1489 1489 1488 1488 1488 1488 1487 1487 1486 1486 1485 1483 1483 1485 1486 1488 1490 1491 1493 1494 1494 1496 1497 1499 1500 1501 1503 1505 1507 1508 1509 1510 1511 1511 1512 1512 1514 1518 1513 1504 1501 1497 1497 1497 1497 1498 1498 1498 1498 1498 1498 1499 1499 1500 1502 1502 1502 1503 1504 1505 1505 1507 1508 1510 1513 1514
1503 1502 1501 1499 1498 1497 1496 1495 1494 1493 1492 1491 1491 1491 1490 1490 1490 1490 1490 1490 1489 1489 1488 1488 1488 1487 1487 1487 1486 1486 1486 1484 1482 1482 1483 1483 1485 1487 1489 1491 1492 1494 1496 1498 1499 1501 1502 1503 1504 1506 1508 1509 1509 1510 1510 1510 1511 1511 1512 1513 1504 1500 1500 1496 1495 1496 1496 1497 1497 1498 1498 1498 1498 1499 1500 1500 1503 1503 1501 1499 1499 1501 1502 1505 1508 1509 1512 1513
1503 1502 1500 1499 1497 1496 1495 1494 1493 1492 1491 1490 1490 1489 1489 1489 1489 1489 1489 1489 1488 1488 1488 1487 1487 1487 1486 1486 1486 1485 1486 1485 1482 1481 1482 1483 1485 1486 1488 1490 1492 1494 1496 1499 1500 1501 1503 1504 1505 1507 1508 1508 1509 1510 1509 1507 1509 1510 1507 1504 1499 1499 1500 1494 1494 1496 1495 1497 1497 1497 1497 1497 1496 1498 1499 1499 1502 1502 1499 1498 1498 1500 1501 1503 1506 1509 1511 1513
1503 1501 1500 1498 1497 1495 1494 1493 1492 1491 1490 1489 1489 1488 1488 1488 1488 1488 1488 1488 1487 1487 1487 1486 1486 1486 1486 1485 1485 1485 1485 1485 1482 1481 1482 1483 1485 1486 1488 1490 1492 1494 1496 1498 1500 1501 1502 1504 1506 1507 1507 1507 1508 1508 1506 1506 1508 1509 1504 1499 1497 1498 1497 1493 1494 1495 1495 1496 1496 1496 1495 1495 1496 1497 1498 1499 1500 1499 1498 1499 1501 1502 1502 1503 1505 1508 1511 1512
1502 1501 1499 1497 1496 1494 1493 1492 1491 1489 1489 1488 1487 1487 1486 1487 1487 1487 1486 1486 1486 1486 1486 1486 1485 1485 1485 1485 1485 1484 1484 1482 1481 1482 1482 1483 1485 1487 1488 1490 1492 1493 1495 1497 1498 1500 1501 1503 1505 1505 1506 1507 1507 1506 1505 1505 1506 1508 1504 1498 1495 1495 1494 1492 1492 1494 1494 1495 1494 1495 1494 1494 1495 1497 1497 1498 1499 1498 1498 1500 1502 1504 1505 1505 1505 1507 1510 1512
1501 1500 1498 1497 1495 1493 1492 1491 1489 1488 1487 1486 1486 1485 1485 1485 1485 1485 1485 1485 1485 1485 1485 1485 1484 1484 1484 1484 1484 1484 1483 1481 1481 1482 1482 1483 1485 1487 1488 1490 1491 1493 1495 1496 1497 1498 1500 1502 1503 1504 1506 1506 1505 1504 1504 1505 1506 1506 1503 1497 1494 1493 1491 1490 1491 1492 1492 1493 1494 1494 1494 1494 1494 1496 1496 1497 1498 1497 1497 1499 1501 1504 1506 1506 1506 1507 1510 1513
1501 1499 1497 1496 1494 1492 1490 1489 1488 1487 1486 1485 1485 1484 1484 1484 1484 1484 1484 1484 1484 1484 1484 1484 1484 1484 1484 1484 1484 1483 1481 1480 1480 1481 1481 1482 1484 1486 1487 1488 1491 1493 1494 1496 1498 1499 1499 1500 1501 1502 1503 1503 1503 1503 1503 1505 1505 1502 1499 1496 1494 1492 1489 1489 1489 1490 1491 1492 1493 1494 1493 1493 1494 1496 1496 1495 1496 1496 1497 1498 1498 1502 1505 1507 1508 1508 1510 1512
1500 1498 1496 1494 1492 1491 1489 1488 1486 1485 1484 1484 1483 1483 1483 1483 1483 1483 1483 1483 1483 1483 1483 1483 1483 1483 1483 1483 1484 1483 1480 1479 1480 1480 1481 1482 1484 1485 1487 1489 1490 1492 1494 1496 1497 1497 1497 1498 1500 1501 1503 1502 1503 1503 1502 1503 1501 1497 1496 1495 1493 1491 1489 1488 1487 1488 1490 1492 1493 1493 1493 1492 1493 1495 1496 1494 1494 1495 1496 1496 1497 1499 1503 1506 1508 1509 1511 1512
1499 1497 1495 1493 1491 1490 1488 1486 1485 1484 1483 1482 1482 1481 1481 1482 1482 1482 1482 1482 1482 1482 1482 1482 1482 1482 1483 1482 1483 1481 1479 1479 1480 1480 1481 1483 1484 1485 1487 1489 1490 1491 1493 1494 1495 1495 1496 1499 1501 1503 1504 1503 1502 1502 1500 1500 1498 1496 1496 1494 1491 1491 1489 1486 1486 1487 1489 1492 1493 1492 1492 1492 1492 1494 1494 1493 1494 1495 1495 1496 1498 1500 1502 1505 1508 1509 1511 1513
1498 1496 1494 1492 1490 1488 1487 1485 1484 1482 1481 1481 1480 1480 1480 1481 1481 1481 1481 1481 1481 1482 1482 1482 1482 1482 1482 1482 1481 1480 1479 1479 1480 1481 1482 1483 1485 1486 1487 1489 1490 1492 1493 1493 1494 1496 1499 1501 1503 1504 1504 1503 1503 1502 1500 1498 1497 1496 1496 1496 1491 1490 1489 1486 1486 1487 1488 1491 1492 1491 1495 1495 1493 1493 1492 1492 1493 1494 1495 1496 1498 1500 1503 1505 1506 1508 1511 1513
1497 1495 1493 1491 1489 1487 1485 1484 1482 1481 1480 1479 1479 1479 1479 1479 1480 1480 1480 1481 1481 1481 1481 1481 1481 1482 1482 1481 1479 1479 1480 1479 1480 1481 1482 1484 1486 1488 1489 1490 1491 1493 1494 1495 1495 1498 1500 1502 1503 1503 1503 1503 1502 1502 1499 1496 1496 1495 1495 1497 1495 1494 1491 1487 1487 1487 1488 1491 1490 1491 1500 1502 1495 1492 1491 1491 1492 1493 1495 1496 1496 1498 1501 1503 1505 1507 1510 1513
1496 1494 1492 1490 1487 1486 1484 1482 1481 1479 1478 1478 1477 1478 1478 1478 1479 1479 1480 1480 1480 1480 1480 1481 1481 1481 1481 1479 1478 1479 1479 1479 1480 1481 1483 1485 1486 1488 1489 1491 1492 1494 1495 1497 1498 1500 1501 1502 1504 1503 1503 1503 1501 1500 1499 1497 1497 1496 1496 1497 1500 1502 1495 1488 1488 1488 1490 1492 1489 1492 1503 1504 1495 1492 1491 1491 1491 1492 1493 1494 1497 1498 1500 1502 1504 1507 1510 1512
1495 1493 1491 1488 1486 1484 1482 1481 1479 1478 1477 1476 1476 1476 1477 1478 1478 1478 1479 1479 1479 1480 1480 1480 1480 1481 1480 1478 1477 1478 1479 1480 1481 1482 1484 1485 1487 1488 1489 1491 1493 1494 1496 1497 1499 1501 1502 1503 1504 1503 1502 1501 1501 1502 1502 1500 1498 1497 1501 1501 1501 1503 1497 1488 1488 1488 1490 1492 1490 1493 1502 1502 1495 1492 1491 1491 1491 1491 1492 1494 1496 1498 1499 1501 1503 1507 1510 1512
1494 1492 1490 1487 1485 1483 1481 1479 1478 1476 1476 1475 1475 1476 1476 1477 1477 1478 1478 1478 1479 1479 1479 1480 1480 1481 1480 1477 1477 1478 1479 1480 1481 1483 1485 1486 1487 1488 1490 1492 1493 1495 1496 1498 1500 1501 1503 1504 1503 1503 1502 1501 1503 1504 1506 1508 1504 1500 1504 1505 1501 1501 1499 1492 1489 1488 1489 1491 1492 1494 1499 1500 1495 1491 1490 1490 1490 1491 1491 1493 1496 1498 1498 1500 1503 1507 1510 1512
1493 1491 1488 1486 1484 1481 1479 1478 1476 1475 1474 1474 1474 1475 1476 1476 1477 1477 1478 1478 1479 1478 1479 1479 1479 1481 1478 1476 1476 1477 1478 1480 1481 1483 1484 1486 1488 1489 1490 1492 1493 1495 1496 1498 1501 1501 1502 1503 1503 1503 1501 1501 1502 1505 1515 1518 1509 1504 1505 1505 1501 1499 1500 1496 1491 1489 1488 1491 1494 1495 1497 1498 1493 1490 1490 1490 1490 1490 1491 1492 1495 1497 1499 1500 1503 1507 1509 1511
1492 1489 1487 1485 1482 1480 1478 1477 1475 1474 1474 1474 1474 1475 1476 1476 1476 1477 1477 1478 1478 1479 1480 1479 1480 1480 1477 1474 1476 1477 1478 1480 1481 1482 1484 1485 1487 1489 1491 1492 1493 1495 1497 1500 1501 1501 1503 1502 1502 1503 1502 1502 1502 1507 1519 1516 1505 1505 1507 1506 1503 1499 1498 1496 1493 1489 1488 1491 1495 1496 1497 1497 1492 1489 1489 1489 1490 1490 1490 1492 1494 1496 1499 1500 1502 1505 1508 1510
1491 1488 1486 1483 1481 1479 1477 1476 1475 1474 1473 1474 1474 1475 1475 1476 1476 1476 1477 1477 1477 1477 1477 1476 1476 1476 1474 1473 1475 1476 1477 1478 1479 1481 1483 1484 1486 1489 1490 1492 1493 1494 1497 1500 1500 1499 1502 1502 1504 1507 1504 1501 1500 1503 1508 1504 1500 1503 1504 1504 1505 1502 1497 1492 1491 1488 1486 1492 1495 1496 1497 1496 1494 1491 1489 1489 1490 1491 1492 1493 1495 1497 1499 1501 1502 1504 1507 1509
1490 1487 1485 1482 1480 1478 1476 1475 1474 1474 1474 1474 1474 1475 1475 1476 1476 1476 1476 1475 1474 1473 1473 1472 1473 1473 1472 1473 1474 1476 1476 1477 1479 1480 1482 1483 1485 1487 1490 1492 1493 1494 1496 1498 1499 1498 1500 1506 1507 1504 1499 1495 1497 1499 1499 1498 1499 1501 1502 1503 1502 1502 1497 1488 1488 1487 1485 1491 1496 1496 1496 1496 1494 1492 1489 1489 1490 1491 1492 1494 1495 1497 1499 1500 1501 1504 1506 1508
1489 1486 1484 1482 1479 1478 1476 1475 1474 1474 1474 1474 1475 1475 1475 1475 1476 1476 1475 1473 1471 1471 1471 1472 1473 1472 1471 1472 1473 1475 1476 1476 1478 1479 1481 1483 1484 1487 1490 1491 1492 1495 1496 1495 1498 1498 1501 1507 1503 1493 1490 1492 1495 1496 1497 1498 1499 1500 1502 1503 1500 1498 1494 1486 1486 1487 1485 1490 1496 1495 1495 1495 1494 1492 1490 1489 1491 1491 1491 1494 1496 1497 1499 1499 1501 1503 1505 1508
1488 1485 1483 1481 1479 1477 1476 1475 1475 1475 1475 1475 1475 1475 1475 1475 1475 1475 1474 1472 1470 1469 1470 1471 1472 1471 1470 1472 1473 1474 1476 1476 1477 1478 1480 1482 1484 1486 1488 1490 1492 1494 1494 1495 1498 1502 1506 1504 1492 1485 1488 1492 1494 1494 1496 1497 1498 1500 1500 1503 1502 1494 1490 1488 1487 1487 1487 1490 1496 1495 1495 1496 1493 1491 1491 1490 1491 1492 1492 1494 1496 1497 1499 1499 1501 1503 1505 1507
1487 1484 1482 1481 1479 1477 1476 1476 1475 1475 1475 1475 1475 1475 1475 1475 1475 1475 1475 1474 1470 1468 1468 1469 1470 1469 1469 1471 1472 1473 1475 1475 1476 1477 1479 1481 1483 1485 1487 1489 1492 1493 1494 1496 1498 1505 1508 1498 1484 1484 1489 1492 1493 1493 1495 1496 1497 1498 1499 1503 1500 1490 1491 1494 1489 1488 1488 1489 1494 1495 1495 1496 1494 1492 1492 1492 1492 1492 1493 1494 1495 1497 1498 1499 1500 1502 1504 1506
1486 1483 1482 1480 1478 1478 1477 1476 1476 1475 1476 1476 1475 1476 1475 1475 1476 1475 1475 1474 1471 1468 1467 1468 1469 1469 1469 1470 1470 1472 1473 1474 1475 1476 1478 1480 1482 1485 1486 1488 1491 1493 1494 1494 1495 1500 1498 1487 1481 1485 1488 1491 1494 1493 1495 1498 1498 1496 1494 1497 1494 1486 1488 1491 1489 1489 1489 1490 1492 1494 1497 1498 1495 1495 1494 1493 1493 1493 1493 1494 1495 1496 1497 1498 1500 1501 1503 1504
1485 1483 1481 1479 1478 1477 1477 1477 1476 1476 1476 1476 1476 1476 1476 1476 1475 1475 1475 1475 1473 1469 1467 1467 1468 1467 1468 1469 1470 1470 1472 1473 1474 1475 1477 1479 1481 1484 1485 1487 1489 1493 1494 1493 1495 1498 1491 1482 1482 1486 1488 1490 1493 1493 1493 1495 1498 1495 1487 1484 1484 1481 1483 1487 1489 1491 1495 1498 1492 1493 1504 1503 1496 1496 1495 1493 1494 1493 1493 1494 1494 1495 1496 1497 1498 1499 1501 1503
1484 1482 1480 1479 1478 1477 1477 1477 1476 1477 1476 1476 1476 1476 1476 1476 1475 1476 1476 1477 1476 1469 1467 1468 1468 1467 1467 1468 1469 1470 1474 1474 1472 1475 1477 1479 1481 1482 1485 1486 1487 1491 1492 1492 1496 1496 1488 1481 1482 1486 1488 1490 1492 1492 1489 1490 1499 1498 1482 1473 1476 1478 1481 1487 1490 1492 1498 1502 1493 1491 1503 1506 1499 1495 1493 1493 1494 1493 1492 1493 1493 1494 1495 1495 1496 1497 1499 1501
1483 1481 1480 1479 1477 1477 1477 1476 1477 1477 1476 1477 1476 1476 1476 1475 1476 1475 1475 1482 1481 1470 1468 1470 1468 1467 1466 1468 1468 1471 1477 1475 1472 1475 1475 1478 1481 1481 1486 1487 1487 1489 1487 1492 1500 1493 1483 1483 1484 1485 1487 1489 1492 1492 1486 1485 1496 1494 1477 1471 1475 1477 1481 1486 1489 1492 1495 1497 1495 1492 1497 1504 1503 1495 1491 1492 1493 1494 1492 1492 1492 1492 1492 1493 1494 1495 1497 1499
1483 1480 1479 1478 1477 1476 1476 1476 1477 1476 1476 1477 1476 1476 1476 1475 1476 1475 1478 1489 1484 1468 1466 1468 1466 1467 1467 1468 1468 1469 1472 1471 1473 1476 1474 1477 1481 1480 1485 1486 1486 1488 1484 1492 1501 1489 1480 1484 1484 1484 1487 1490 1489 1485 1481 1483 1489 1484 1473 1473 1475 1475 1481 1484 1488 1492 1493 1496 1499 1496 1497 1504 1504 1496 1492 1491 1493 1495 1491 1489 1489 1488 1489 1490 1491 1493 1495 1498
1482 1479 1478 1477 1476 1475 1475 1476 1476 1476 1476 1476 1476 1477 1476 1475 1476 1475 1482 1490 1479 1466 1466 1467 1466 1467 1467 1468 1469 1469 1469 1469 1472 1474 1474 1478 1480 1480 1484 1483 1484 1487 1484 1487 1493 1485 1480 1481 1480 1481 1486 1487 1482 1478 1477 1481 1483 1477 1473 1475 1475 1478 1481 1484 1488 1489 1492 1500 1499 1494 1497 1503 1502 1497 1496 1496 1494 1492 1487 1484 1484 1485 1487 1488 1489 1491 1493 1496
1481 1478 1477 1476 1475 1475 1475 1475 1475 1476 1476 1476 1477 1476 1475 1476 1477 1480 1490 1487 1474 1467 1467 1466 1467 1467 1467 1469 1472 1470 1470 1471 1471 1472 1475 1478 1479 1480 1481 1481 1482 1486 1486 1485 1486 1483 1479 1478 1477 1478 1480 1478 1475 1474 1473 1475 1476 1474 1476 1479 1480 1483 1483 1486 1489 1487 1498 1505 1494 1490 1494 1498 1499 1495 1494 1491 1481 1476 1479 1481 1481 1481 1483 1485 1487 1489 1491 1494
1480 1478 1476 1475 1475 1474 1474 1475 1475 1475 1475 1476 1476 1475 1476 1477 1478 1487 1492 1480 1471 1471 1467 1467 1468 1467 1468 1471 1473 1472 1471 1472 1471 1473 1477 1478 1481 1482 1482 1484 1485 1488 1492 1490 1486 1483 1479 1479 1478 1474 1472 1472 1473 1474 1472 1471 1472 1474 1479 1482 1485 1489 1489 1492 1492 1492 1506 1507 1492 1490 1492 1496 1500 1490 1482 1476 1466 1465 1472 1475 1477 1477 1478 1481 1484 1487 1489 1492
1479 1477 1476 1475 1474 1474 1474 1475 1475 1474 1475 1476 1476 1476 1477 1479 1482 1488 1484 1473 1474 1474 1466 1467 1469 1467 1470 1471 1473 1473 1473 1474 1473 1474 1477 1479 1482 1483 1484 1487 1488 1495 1502 1497 1490 1487 1481 1478 1475 1471 1469 1469 1474 1479 1477 1474 1475 1477 1481 1485 1492 1500 1502 1503 1503 1505 1509 1501 1491 1492 1492 1495 1494 1476 1466 1467 1463 1463 1465 1467 1471 1473 1475 1477 1480 1484 1487 1490
1478 1476 1475 1474 1474 1473 1474 1474 1474 1474 1475 1475 1476 1476 1478 1484 1487 1484 1477 1474 1474 1470 1464 1465 1466 1467 1471 1472 1474 1474 1473 1475 1473 1474 1476 1477 1482 1483 1482 1482 1483 1491 1498 1496 1493 1492 1486 1477 1472 1473 1471 1466 1471 1480 1483 1481 1479 1481 1482 1485 1493 1504 1512 1514 1512 1512 1508 1496 1490 1490 1492 1494 1484 1464 1457 1458 1455 1456 1459 1463 1469 1470 1471 1474 1477 1482 1485 1488
1477 1476 1475 1474 1474 1474 1473 1474 1474 1474 1475 1475 1476 1476 1480 1487 1486 1477 1474 1474 1469 1465 1463 1465 1466 1469 1471 1473 1474 1472 1474 1476 1473 1474 1477 1479 1484 1485 1483 1482 1481 1484 1489 1493 1494 1493 1496 1488 1475 1473 1472 1467 1467 1472 1474 1475 1477 1478 1477 1481 1486 1492 1501 1508 1506 1505 1504 1500 1496 1494 1494 1491 1478 1461 1452 1449 1447 1450 1456 1461 1466 1469 1471 1473 1476 1481 1483 1486
1476 1475 1475 1474 1474 1474 1473 1474 1474 1475 1475 1475 1475 1478 1483 1487 1483 1477 1475 1471 1467 1465 1465 1464 1466 1471 1474 1473 1472 1470 1472 1476 1474 1475 1479 1480 1483 1484 1481 1480 1480 1481 1486 1495 1494 1490 1497 1492 1473 1467 1467 1465 1467 1464 1464 1470 1477 1476 1474 1480 1484 1479 1481 1492 1497 1495 1498 1502 1499 1495 1489 1476 1465 1455 1447 1445 1445 1448 1454 1459 1465 1470 1473 1475 1477 1479 1481 1484
1476 1475 1475 1475 1475 1474 1474 1475 1475 1475 1475 1474 1477 1480 1481 1481 1477 1475 1472 1467 1467 1467 1467 1468 1468 1473 1477 1476 1474 1471 1470 1472 1474 1477 1479 1480 1480 1479 1478 1475 1474 1477 1481 1489 1491 1489 1495 1488 1470 1467 1466 1462 1464 1462 1460 1467 1475 1477 1478 1480 1477 1469 1471 1485 1495 1494 1497 1503 1497 1491 1484 1469 1461 1457 1450 1448 1448 1449 1455 1459 1463 1468 1470 1473 1475 1476 1479 1482
1476 1475 1475 1475 1475 1475 1474 1475 1475 1476 1475 1475 1479 1481 1479 1474 1471 1470 1467 1465 1466 1466 1468 1473 1470 1471 1477 1477 1475 1473 1471 1472 1475 1478 1480 1481 1479 1474 1474 1472 1470 1472 1473 1478 1484 1483 1488 1486 1471 1468 1470 1461 1458 1460 1459 1459 1464 1474 1479 1473 1468 1470 1471 1478 1491 1497 1502 1507 1496 1487 1486 1477 1473 1468 1456 1454 1456 1455 1457 1458 1461 1466 1468 1470 1472 1473 1476 1479
1476 1476 1476 1476 1476 1475 1475 1475 1476 1476 1475 1476 1478 1479 1477 1473 1467 1466 1465 1464 1465 1465 1467 1472 1468 1468 1473 1475 1474 1472 1472 1474 1475 1477 1479 1481 1477 1468 1468 1470 1467 1467 1466 1472 1480 1479 1484 1489 1476 1467 1469 1463 1456 1461 1465 1460 1458 1464 1467 1463 1466 1479 1480 1479 1489 1497 1503 1510 1502 1489 1487 1482 1476 1468 1458 1458 1462 1459 1457 1459 1461 1464 1465 1467 1469 1471 1474 1477
1475 1476 1477 1477 1477 1476 1476 1476 1476 1476 1476 1478 1480 1478 1476 1472 1466 1463 1463 1463 1464 1465 1466 1467 1465 1467 1469 1471 1471 1470 1471 1473 1474 1475 1476 1478 1475 1465 1463 1465 1464 1464 1464 1468 1477 1477 1480 1491 1484 1468 1465 1464 1460 1464 1470 1468 1462 1460 1462 1464 1467 1475 1480 1480 1484 1487 1493 1507 1508 1496 1488 1479 1468 1460 1455 1457 1459 1457 1457 1457 1457 1458 1460 1463 1465 1468 1471 1474
1475 1476 1478 1478 1477 1477 1477 1477 1477 1477 1477 1480 1481 1478 1475 1472 1466 1461 1461 1462 1462 1462 1463 1463 1463 1466 1467 1467 1468 1468 1468 1470 1471 1472 1471 1472 1472 1465 1460 1461 1462 1463 1464 1466 1472 1475 1478 1488 1489 1474 1465 1468 1468 1465 1467 1468 1467 1466 1468 1472 1471 1472 1477 1479 1481 1483 1485 1495 1504 1503 1495 1477 1458 1451 1450 1451 1453 1453 1453 1453 1453 1453 1456 1460 1463 1465 1468 1471
1475 1476 1479 1479 1478 1478 1477 1477 1478 1478 1479 1480 1481 1478 1474 1471 1467 1462 1460 1460 1460 1458 1458 1459 1460 1462 1463 1465 1465 1464 1466 1469 1469 1469 1469 1468 1469 1466 1459 1457 1459 1461 1466 1470 1472 1473 1477 1484 1487 1480 1473 1473 1468 1459 1459 1461 1462 1465 1467 1468 1469 1470 1476 1483 1489 1488 1483 1486 1493 1498 1496 1474 1450 1445 1446 1446 1448 1449 1448 1450 1451 1452 1454 1458 1461 1463 1466 1469
1475 1478 1480 1479 1479 1478 1478 1478 1479 1480 1480 1480 1479 1477 1473 1470 1468 1464 1460 1459 1459 1457 1456 1457 1458 1460 1461 1461 1461 1462 1464 1467 1468 1468 1468 1466 1466 1464 1457 1454 1456 1458 1463 1470 1470 1467 1470 1477 1483 1481 1476 1471 1462 1454 1455 1457 1457 1460 1462 1463 1464 1466 1471 1481 1489 1485 1483 1488 1487 1490 1493 1471 1446 1442 1444 1444 1445 1445 1446 1448 1449 1451 1452 1455 1458 1461 1465 1467
1477 1479 1480 1479 1479 1479 1478 1480 1481 1481 1481 1478 1476 1475 1472 1470 1469 1465 1462 1461 1460 1458 1458 1458 1457 1459 1460 1458 1458 1462 1463 1465 1467 1466 1464 1464 1461 1457 1454 1453 1455 1457 1460 1466 1467 1464 1468 1476 1482 1481 1474 1465 1457 1452 1452 1454 1456 1459 1461 1460 1462 1464 1464 1469 1476 1476 1480 1487 1484 1489 1493 1470 1445 1443 1444 1442 1444 1445 1446 1447 1448 1450 1451 1453 1457 1459 1462 1465
1479 1480 1480 1480 1480 1479 1480 1483 1485 1484 1481 1478 1476 1473 1471 1470 1469 1467 1465 1463 1461 1460 1460 1460 1458 1458 1458 1456 1457 1461 1462 1464 1467 1465 1463 1464 1459 1453 1452 1453 1454 1455 1456 1459 1460 1462 1469 1476 1481 1487 1487 1477 1468 1464 1461 1458 1458 1460 1460 1459 1460 1461 1462 1465 1470 1473 1479 1482 1480 1485 1488 1467 1447 1445 1444 1442 1445 1445 1446 1446 1447 1449 1451 1453 1455 1457 1459 1463
1480 1481 1480 1481 1481 1481 1482 1484 1485 1485 1483 1480 1478 1474 1472 1470 1469 1468 1467 1464 1461 1461 1461 1460 1458 1457 1457 1456 1458 1460 1460 1461 1466 1465 1463 1463 1459 1453 1451 1452 1452 1452 1451 1452 1452 1456 1466 1473 1476 1486 1495 1492 1485 1480 1472 1464 1462 1460 1458 1458 1458 1460 1462 1465 1469 1475 1479 1482 1480 1478 1475 1461 1449 1446 1445 1444 1446 1446 1446 1447 1447 1448 1450 1452 1454 1456 1458 1461
1481 1482 1482 1482 1481 1482 1483 1483 1483 1484 1483 1483 1481 1477 1476 1474 1470 1466 1465 1464 1462 1461 1461 1461 1458 1457 1458 1458 1460 1463 1462 1461 1463 1465 1464 1464 1460 1455 1451 1450 1450 1449 1449 1450 1450 1454 1465 1470 1469 1474 1480 1479 1474 1470 1466 1464 1465 1463 1459 1457 1458 1461 1461 1462 1469 1473 1474 1480 1480 1471 1466 1462 1454 1449 1447 1445 1446 1447 1447 1447 1447 1448 1450 1451 1453 1455 1457 1459
1483 1484 1484 1484 1483 1483 1483 1483 1483 1483 1483 1484 1483 1480 1479 1478 1473 1468 1465 1465 1465 1463 1462 1462 1461 1462 1464 1463 1464 1466 1466 1464 1463 1464 1465 1464 1460 1455 1451 1449 1449 1447 1446 1448 1449 1454 1464 1468 1467 1469 1469 1466 1464 1461 1461 1464 1465 1462 1460 1460 1460 1461 1462 1462 1466 1468 1467 1475 1476 1465 1462 1465 1456 1449 1448 1445 1444 1446 1445 1445 1446 1447 1449 1451 1453 1455 1457 1459
1484 1485 1485 1485 1485 1485 1485 1484 1484 1483 1483 1483 1482 1482 1481 1480 1478 1475 1471 1467 1466 1465 1465 1466 1466 1466 1467 1466 1465 1468 1469 1467 1466 1466 1465 1464 1461 1458 1453 1449 1448 1447 1446 1449 1450 1452 1461 1465 1465 1467 1467 1464 1464 1463 1463 1464 1463 1462 1462 1462 1461 1461 1461 1462 1463 1463 1463 1466 1467 1462 1462 1462 1452 1446 1445 1442 1441 1442 1443 1443 1445 1446 1448 1451 1452 1455 1456 1458
1484 1485 1485 1485 1485 1486 1486 1485 1484 1484 1483 1482 1482 1483 1483 1482 1481 1480 1476 1472 1470 1468 1468 1471 1471 1469 1467 1465 1465 1470 1472 1471 1472 1470 1466 1465 1465 1463 1460 1456 1452 1449 1449 1452 1452 1452 1458 1463 1463 1465 1466 1464 1464 1465 1464 1462 1461 1462 1462 1462 1462 1462 1460 1461 1463 1463 1462 1460 1460 1461 1463 1458 1447 1443 1442 1438 1439 1441 1442 1443 1444 1446 1448 1450 1451 1453 1454 1456
1485 1486 1485 1485 1485 1485 1485 1485 1484 1485 1484 1484 1484 1485 1485 1484 1483 1481 1478 1476 1477 1474 1472 1474 1474 1471 1470 1468 1466 1470 1472 1472 1474 1471 1466 1467 1466 1463 1464 1462 1457 1454 1453 1455 1456 1454 1457 1463 1464 1464 1465 1465 1464 1465 1465 1462 1462 1462 1461 1460 1460 1460 1460 1461 1463 1464 1464 1461 1458 1460 1463 1456 1444 1440 1440 1439 1439 1440 1442 1443 1444 1445 1446 1448 1450 1451 1452 1454
1486 1486 1486 1486 1486 1486 1485 1485 1485 1485 1486 1487 1487 1487 1486 1485 1485 1483 1479 1477 1478 1478 1476 1476 1475 1472 1471 1469 1468 1470 1470 1469 1470 1467 1464 1466 1466 1462 1462 1461 1459 1459 1458 1458 1457 1455 1456 1462 1463 1463 1468 1469 1465 1466 1467 1463 1461 1462 1462 1461 1461 1461 1463 1465 1465 1466 1466 1464 1461 1462 1461 1454 1443 1439 1440 1439 1438 1440 1441 1442 1444 1445 1446 1446 1447 1448 1449 1450
1486 1487 1486 1487 1487 1486 1486 1486 1486 1486 1487 1488 1488 1488 1487 1486 1484 1483 1481 1477 1476 1477 1477 1475 1474 1473 1472 1471 1469 1469 1468 1467 1466 1463 1462 1462 1462 1460 1459 1457 1456 1459 1460 1459 1458 1457 1459 1461 1461 1464 1470 1469 1465 1468 1469 1467 1470 1472 1466 1462 1463 1464 1465 1466 1466 1465 1464 1464 1464 1461 1455 1448 1444 1443 1442 1440 1439 1439 1440 1440 1443 1444 1444 1444 1445 1446 1447 1447